User: anonymous   Login
Location: Unspecified
(0.0000°N, 0.0000°E)
Time: 21:41:15
(UTC+00:00)
Language:

NOAA 18 - Orbit

View from above orbital plane
View from above orbital plane
View from above satellite
View from above satellite

Ground track
Ground track

The orbit data is extracted from the following two-line orbital elements,

1 28654U 05018A   17083.96289643 +.00000033 +00000-0 +43264-4 0  9994
2 28654 099.1892 104.0918 0013472 310.4705 049.5291 14.12329688610275
Epoch (UTC): 24 March 2017 23:06:34
Eccentricity: 0.0013472
inclination: 99.1892°
perigee height: 841 km
apogee height: 861 km
right ascension of ascending node: 104.0918°
argument of perigee: 310.4705°
revolutions per day: 14.12329688
mean anomaly at epoch: 49.5291°
orbit number at epoch: 61027

The dashed part of the orbit path shows where the satellite is in the earth's shadow,  

DLR